sat.trackr.live / text

‹ back to catalog

UNKNOWN

NORAD 82529

UNKNOWN UNKNOWN UNKNOWN

§ Identity

Operator
Country
Launch date
Launch site
Launch vehicle
Mass (kg)
RCS (m²)

External: N2YO · Heavens-Above

§ Orbital elements

Epoch: 2026-05-24T00:30:47.411712Z

Period
107.35 min
Inclination
99.7788°
Eccentricity
0.0242166
Mean motion
13.41357410 rev/d
Perigee alt
923.0 km
Apogee alt
1,285.4 km
Semi-major
7,482.4 km
B*
2.2933e-3
RAAN
227.2214°
Arg perigee
204.1842°
Mean anomaly
335.2018°
Rev number
61,149

§ Raw data

UNKNOWN1 82529U          26144.02138208  .00001472  00000+0  22933-2 0  99912 82529  99.7788 227.2214 0242166 204.1842 335.2018 13.41357410611490

JSON: /api/v1/satellites/82529 · /tle

For live sub-satellite position, see the globe view (requires WebGL).

§ Visibility from observer

Set your observer location to see the next 7 days of passes ≥ 10°. The values pass through the URL so the page stays shareable.

No JS? Fill the form by hand. The geolocation button needs JavaScript.